Location: Ku?niki
(51.4449°N, 17.8974°E)
Time: 01:05:30
(UTC+00:00)

Cosmos 990 Rocket - Pass Details

Date: 18 September 2020
Orbit: 746 x 769 km, 74.0° (Epoch: 23 October)

Event Time Altitude Azimuth Distance (km) Brightness Sun altitude
Rises 17:58:41 0° 209° (SSW) 3,181 7.4 -10.6°
Reaches altitude 10° 18:01:03 10° 211° (SSW) 2,260 6.6 -10.9°
Maximum altitude 18:06:10 73° 296° (WNW) 785 4.2 -11.7°
Drops below altitude 10° 18:11:19 10° 22° (NNE) 2,280 6.4 -12.5°
Sets 18:13:43 0° 24° (NNE) 3,210 7.2 -12.8°
